Weather in Puerto Calero

Spain     28°55′11″N   13°42′23″W
temp.,
°C
wind,
m/s
gust,
m/s
humid.,
%
clouds,
%
prec.,
mm/h
press.,
hPa
HPBL,
m
4 august, wed
wed401:00+19nne798324 0.0 1019671
04:00+20nne798099 0.0 1018768
07:00+20nne8976100 0.1 1018870
10:00+21nne897690 0.1 1019850
13:00+23nne88686 0.1 1020784
16:00+23n99701 0.0 1019671
19:00+21n1011811 0.0 1019551
22:00+20nne9129243 0.0 1020524
5 august, thu
thu501:00+20nne9139064 0.0 1020529
04:00+21nne10138991 0.0 1018566
07:00+20nne9149357 0.0 1018574
10:00+22n10138414 0.0 1019553
13:00+23n9117816 0.0 1019622
16:00+23n9117713 0.0 1018591
19:00+22n9128413 0.0 1017499
22:00+21n8129436 0.0 1018462
6 august, fri
fri601:00+20n8129434 0.0 1017470
04:00+20nne711928 0.0 1016417
07:00+20nne710910 0.0 1016374
10:00+22nne810771 0.0 1017527
13:00+23n9107511 0.0 1016584
16:00+23n910762 0.0 1015619
19:00+22n9118150 0.1 1015604
22:00+21n9118852 0.0 1016569
7 august, sat
sat701:00+20nne7109032 0.0 1016516
04:00+20nne7108924 0.0 1015480
07:00+20nne798496 0.0 1015600
10:00+21n9107635 0.0 1016647
13:00+23n99695 0.0 1016685
16:00+23n910707 0.0 1015691
19:00+22n810771 0.0 1015558
22:00+20n8119235 0.0 1017494
8 august, sun
sun801:00+20n7119247 0.0 1017451
04:00+20n8119260 0.0 1016493
07:00+21nne7109264 0.0 1016522
10:00+22n7108529 0.0 1017604
13:00+23n9107610 0.0 1018641
16:00+23n99712 0.0 1018634
19:00+21n911760 0.0 1018626
22:00+20n912863 0.0 1019637